Location: Newark
(48.4546°N, 21.8195°E)
Time: 16:24:45
(UTC+00:00)

N. Korean satellite - Visible Passes

Search period start: 30 September 2020 00:00
Search period end: 10 October 2020 00:00
Orbit: 455 x 503 km, 97.2° (Epoch: 29 September)

Date Brightness Start Highest point End Pass type
(mag) Time Alt. Az. Time Alt. Az. Time Alt. Az.
30 Sep 9.9 03:10:05 10° NE 03:12:16 15° E 03:14:26 10° SE visible
02 Oct 8.0 03:50:20 10° NNE 03:53:48 43° E 03:57:10 10° S visible
03 Oct 9.4 03:24:44 10° NE 03:27:35 22° E 03:30:24 10° SE visible
04 Oct 10.2 03:00:03 10° ENE 03:01:17 11° E 03:02:31 10° ESE visible
05 Oct 7.0 04:05:25 10° NNE 04:08:59 67° ESE 04:12:28 10° S visible
06 Oct 8.6 03:39:35 10° NNE 03:42:50 32° E 03:46:00 10° SSE visible
07 Oct 9.8 03:14:13 10° NE 03:16:34 17° E 03:18:53 10° SE visible
08 Oct 10.7 16:35:08 10° WSW 16:36:10 11° W 16:37:12 10° WNW visible
09 Oct 7.7 03:54:32 10° NNE 03:57:59 48° E 04:01:22 10° S visible
